This demonstration page uses our WeatherBlox Daily Observations layout. Learn more.

Left ArrowRight Arrow

40.92945, -100.16068

Hourly Observations for October 13, 2020

Temp ( °F °C ) Dew Point ( °F °C ) Humidity (%) Winds ( mph kmh ) Pressure ( in mb ) Visibility ( mi km ) Precip ( " mm )
12:15 am 00:15 Clear 57 13.9 29 -1.9 34 34 W 8 13 29.88 1012 10 16.0934 0 0
12:35 am 00:35 Clear 58 14.6 28 -2 32 32 W 7 11 29.88 1012 10 16.0934 0 0
12:55 am 00:55 Clear 55 13 29 -1.4 37 37 WSW 5 7 29.9 1013 10 16.0934 0 0
1:15 am 01:15 Clear 53 11.5 30 -1.3 41 41 W 3 6 29.93 1013 10 16.0934 0 0
1:35 am 01:35 Clear 52 11 30 -1.2 43 43 W 3 6 29.94 1014 10 16.0934 0 0
1:55 am 01:55 Clear 50 9.9 29 -1.6 45 45 Calm 29.94 1014 10 16.0934 0 0
2:15 am 02:15 Clear 48 8.8 30 -1.1 50 50 W 3 6 29.96 1015 10 16.0934 0 0
2:35 am 02:35 Clear 45 7 31 -0.6 59 59 NW 6 9 29.98 1015 10 16.0934 0 0
2:55 am 02:55 Clear 45 7 31 -0.5 59 59 NW 3 6 29.99 1016 10 16.0934 0 0
3:15 am 03:15 Clear 43 6.3 31 -0.6 62 62 W 5 7 30.01 1016 10 16.0934 0 0
3:35 am 03:35 Clear 43 6.2 31 -0.5 63 63 NW 9 15 30.02 1016 10 16.0934 0 0
3:55 am 03:55 Clear 43 6.3 31 -0.5 62 62 NW 8 13 30.03 1017 10 16.0934 0 0
4:15 am 04:15 Clear 42 5.4 31 -0.8 65 65 WNW 6 9 30.04 1017 10 16.0934 0 0
4:35 am 04:35 Clear 40 4.3 31 -0.7 70 70 WNW 5 7 30.06 1018 10 16.0934 0 0
4:55 am 04:55 Clear 43 6.2 31 -0.5 63 63 NW 9 15 30.08 1019 10 16.0934 0 0
5:15 am 05:15 Clear 42 5.6 32 0 68 68 WNW 9 15 30.09 1019 10 16.0934 0 0
5:35 am 05:35 Clear 42 5.5 31 -0.3 67 67 WNW 7 11 30.11 1020 10 16.0934 0 0
5:55 am 05:55 Clear 41 5.2 31 -0.3 68 68 NW 8 13 30.14 1021 10 16.0934 0 0
6:15 am 06:15 Clear 41 5.1 32 -0.1 69 69 WNW 8 13 30.16 1021 10 16.0934 0 0
6:35 am 06:35 Clear 42 5.7 32 0.1 68 68 WNW 9 15 30.16 1021 10 16.0934 0 0
6:55 am 06:55 Clear 42 5.7 33 0.5 70 70 WNW 7 11 30.17 1022 10 16.0934 0 0
7:15 am 07:15 Clear 41 5.1 33 0.8 74 74 NW 8 13 30.18 1022 10 16.0934 0 0
7:35 am 07:35 Clear 40 4.5 33 0.4 75 75 NW 7 11 30.2 1023 10 16.0934 0 0
7:55 am 07:55 Sunny 39 4 33 0.5 78 78 WNW 6 9 30.21 1023 7 11.26538 0 0
8:15 am 08:15 Sunny 40 4.2 33 0.5 77 77 WNW 8 13 30.23 1024 7 11.26538 0 0
8:35 am 08:35 Sunny 42 5.8 35 1.5 74 74 WNW 6 9 30.21 1023 10 16.0934 0 0
8:55 am 08:55 Sunny 46 7.6 36 2.3 69 69 WNW 5 7 30.2 1023 10 16.0934 0 0
9:15 am 09:15 Sunny 49 9.7 37 2.7 62 62 WNW 3 6 30.19 1022 10 16.0934 0 0
9:35 am 09:35 Sunny 52 11.1 36 2.2 55 55 NNW 6 9 30.19 1022 10 16.0934 0 0
9:55 am 09:55 Sunny 55 12.6 36 2.2 49 49 N 3 6 30.19 1022 10 16.0934 0 0
10:15 am 10:15 Sunny 58 14.7 32 0.1 37 37 N 10 17 30.17 1022 10 16.0934 0 0
10:35 am 10:35 Sunny 60 15.4 32 -0.1 35 35 N 8 13 30.17 1022 10 16.0934 0 0
10:55 am 10:55 Sunny 61 16.3 29 -1.8 29 29 NNE 12 19 30.16 1021 10 16.0934 0 0
11:15 am 11:15 Sunny 62 16.8 28 -2 28 28 NNE 9 15 30.17 1022 10 16.0934 0 0
11:35 am 11:35 Sunny 63 17.3 28 -2 27 27 N 9 15 30.17 1022 10 16.0934 0 0
11:55 am 11:55 Sunny 64 17.7 27 -2.7 25 25 NNE 12 19 30.15 1021 10 16.0934 0 0
12:15 pm 12:15 Sunny 64 18 28 -2.3 25 25 NNE 12 19 30.14 1021 10 16.0934 0 0
12:35 pm 12:35 Sunny 65 18.4 29 -1.9 25 25 NNE 12 19 30.13 1020 10 16.0934 0 0
12:55 pm 12:55 Sunny 65 18.6 28 -2.1 25 25 NNE 7 11 30.11 1020 10 16.0934 0 0
1:35 pm 13:35 Sunny 67 19.7 28 -2.2 23 23 NE 13 20 30.07 1018 10 16.0934 0 0
1:55 pm 13:55 Sunny 67 19.7 28 -2.3 23 23 E 7 11 30.08 1019 10 16.0934 0 0
2:15 pm 14:15 Sunny 68 19.8 28 -2.4 22 22 E 5 7 30.08 1019 10 16.0934 0 0
2:35 pm 14:35 Sunny 68 20.1 28 -2.4 22 22 Calm 30.06 1018 10 16.0934 0 0
2:55 pm 14:55 Sunny 69 20.7 28 -2.2 21 21 Calm 30.05 1017 10 16.0934 0 0
3:15 pm 15:15 Sunny 69 20.4 28 -2.2 22 22 Calm 30.04 1017 10 16.0934 0 0
3:35 pm 15:35 Sunny 70 21.1 28 -2.1 21 21 Calm 30.02 1017 10 16.0934 0 0
3:55 pm 15:55 Sunny 70 20.9 28 -2 21 21 SE 5 7 30.02 1017 10 16.0934 0 0
4:15 pm 16:15 Sunny 70 21.1 28 -2 21 21 S 3 6 30.01 1016 10 16.0934 0 0
4:35 pm 16:35 Sunny 70 21.3 28 -2 21 21 SE 7 11 30 1016 10 16.0934 0 0
4:55 pm 16:55 Sunny 71 21.4 29 -1.9 21 21 SSE 9 15 29.98 1015 10 16.0934 0 0
5:15 pm 17:15 Sunny 71 21.6 29 -1.9 21 21 SSE 10 17 29.96 1014 10 16.0934 0 0
5:35 pm 17:35 Sunny 71 21.4 28 -2 21 21 SSE 10 17 29.96 1015 10 16.0934 0 0
5:55 pm 17:55 Sunny 70 21.1 29 -1.7 22 22 S 14 22 29.94 1014 10 16.0934 0 0
6:15 pm 18:15 Sunny 69 20.8 29 -1.6 22 22 S 13 20 29.94 1014 10 16.0934 0 0
6:35 pm 18:35 Sunny 68 20 29 -1.5 24 24 SSE 9 15 29.94 1014 10 16.0934 0 0
6:55 pm 18:55 Sunny 64 18 30 -1.2 27 27 SSE 9 15 29.95 1014 10 16.0934 0 0
7:15 pm 19:15 Clear 62 16.5 30 -1.2 30 30 SSE 8 13 29.94 1014 7 11.26538 0 0
7:35 pm 19:35 Clear 60 15.4 30 -1.2 32 32 SSE 8 13 29.94 1014 10 16.0934 0 0
7:55 pm 19:55 Clear 59 15 30 -1.1 33 33 SSE 9 15 29.95 1014 10 16.0934 0 0
8:15 pm 20:15 Clear 58 14.6 30 -0.9 35 35 SSE 8 13 29.95 1014 10 16.0934 0 0
8:35 pm 20:35 Clear 57 13.9 30 -0.9 36 36 SSE 6 9 29.96 1014 10 16.0934 0 0
8:55 pm 20:55 Clear 56 13.2 31 -0.6 39 39 SSE 7 11 29.95 1014 10 16.0934 0 0
9:15 pm 21:15 Clear 57 14 31 -0.5 37 37 SSE 8 13 29.93 1014 10 16.0934 0 0
9:35 pm 21:35 Clear 58 14.2 32 -0.1 38 38 SSE 8 13 29.92 1013 10 16.0934 0 0
9:55 pm 21:55 Clear 56 13.3 32 0 40 40 SSE 7 11 29.93 1014 10 16.0934 0 0
10:15 pm 22:15 Clear 55 12.8 32 0.2 42 42 SSE 8 13 29.94 1014 10 16.0934 0 0
10:35 pm 22:35 Clear 58 14.4 33 0.5 39 39 SSE 12 19 29.91 1013 10 16.0934 0 0
10:55 pm 22:55 Clear 57 14 33 0.5 40 40 S 14 22 29.89 1012 10 16.0934 0 0
11:15 pm 23:15 Clear 57 13.7 33 0.7 41 41 S 12 19 29.89 1012 10 16.0934 0 0
11:35 pm 23:35 Clear 58 14.2 33 0.8 40 40 S 14 22 29.87 1012 10 16.0934 0 0
11:55 pm 23:55 Clear 58 14.4 34 0.9 40 40 S 15 24 29.86 1011 10 16.0934 0 0

Powered by AerisWeather